Regional Weather Roundup
Issued by NWS Charleston, SC

Current Version | Previous Version | Graphics & Text | Print | Product List | Glossary On
Versions: 1 2 3 4 5 6 7 8 9 10 11 12 13 14 15 16 17 18 19 20 21 22 23 24 25 26 27 28 29 30 31 32 33 34 35 36 37 38 39 40 41 42 43 44 45 46 47 48 49 50
000 ASUS42 KCHS 052212 RWRCHS REGIONAL WEATHER ROUNDUP NATIONAL WEATHER SERVICE CHARLESTON SC 600 PM EDT SUN JUL 05 2015 NOTE: "FAIR" INDICATES FEW OR NO CLOUDS BELOW 12,000 FEET WITH NO SIGNIFICANT WEATHER AND/OR OBSTRUCTIONS TO VISIBILITY. NOT ALL STATIONS ARE QUALITY CONTROLLED BY THE NATIONAL WEATHER SERVICE. USE DATA WITH CAUTION...ESPECIALLY DEWPOINT OBSERVATIONS. SCZ027-030-031-034>040-042>050-052300- ...SOUTHEAST SOUTH CAROLINA... CITY SKY/WX TMP DP RH WIND PRES REMARKS N CHARLESTON PTSUNNY 85 71 63 S14 30.11S HX 90 WATERFRONT PAR N/A 84 74 72 S8 30.09S HX 91 MOUNT PLEASANT FAIR 84 73 70 S10 30.12R HX 91 JOHNS ISLAND FAIR 84 75 74 S14 30.12R HX 92 PINOPOLIS NOT AVBL MONCKS CORNER FAIR 82 73 74 S3 30.10S SUMMERVILLE FAIR 82 77 83 S7 30.11S HX 91 BEAUFORT MCAS TSTM 76 74 93 W12 30.13R FOG BEAUFORT ARPT FAIR 81 73 78 CALM 30.12S HILTON HEAD IS PTSUNNY 82 75 78 SW13G23 30.15R THUNDER WALTERBORO MOCLDY 79 72 78 S9 30.12R ALLENDALE TSTM 72 70 94 CALM 30.14R VSB<1/4 ...SOUTHERN MIDLANDS AND PEE DEE... CITY SKY/WX TMP DP RH WIND PRES REMARKS GEORGETOWN NOT AVBL KINGSTREE NOT AVBL ORANGEBURG TSTM 77 73 87 S7 30.10R BARNWELL CLOUDY 75 73 94 S13G26 30.12R THUNDER FOG AIKEN NOT AVBL MANNING RAIN 77 70 78 S5 30.09F COLUMBIA PTSUNNY 84 72 67 S5 30.04F SUMTER MOSUNNY 79 71 77 S10 30.05F FLORENCE LGT RAIN 83 70 64 S20G35 30.07R MYRTLE BEACH PTSUNNY 84 72 65 SW12G18 30.10F N MYRTLE BEACH SUNNY 83 74 74 SW16 30.09F $$ GAZ063-065-086>088-099>101-113>116-118-119-134>141-150-052300- ...SOUTHEAST GEORGIA... CITY SKY/WX TMP DP RH WIND PRES REMARKS SAVANNAH ARPT CLOUDY 73 71 93 SW9 30.15S HUNTER AAF TSTM 71 71 100 SW8 30.14S FORT STEWART CLOUDY 77 71 82 E10 30.13F STATESBORO NOT AVBL SYLVANIA HVY RAIN 76 74 94 CALM 30.15R CLAXTON LGT RAIN 73 73 100 CALM 30.14S ...CSRA...CENTRAL AND FAR SOUTHEAST GEORGIA... CITY SKY/WX TMP DP RH WIND PRES REMARKS THOMSON MOSUNNY 88 71 56 SW6 30.11S HX 93 AUGUSTA-BUSH PTSUNNY 82 72 71 S12 30.05F AUGUSTA-DANIEL PTSUNNY 87 68 52 W6 30.06F HX 90 SWAINSBORO FAIR 82 81 94 S7 30.11S HX 95 VIDALIA RAIN 79 73 83 SE5 30.13R EASTMAN MOCLDY 84 69 61 W6 30.12S HAZLEHURST FAIR 83 73 72 CALM 30.10S ALMA CLOUDY 77 72 84 SE6 30.12S WAYCROSS LGT RAIN 76 76 100 E5 30.12S JESUP FAIR 79 73 83 CALM 30.14F BAXLEY FAIR 79 73 83 E5 30.12S BRUNSWICK CLOUDY 73 72 94 S3 30.17F THUNDER SAINT SIMONS TSTM 73 70 90 CALM 30.17R FOG $$ SCZ027-028-034-036>038-045-046-048>050-GAZ119-141-052300- ...LAKE AND SUPPLEMENTAL COASTAL OBSERVATIONS... STATION/POSITION TIME TEMP WIND PRES WAVE SWELL AIR SEA DIR/SP/G HT/PER HT/PER/DIR (UTC) (F) (DEG/KT/KT) (MB) (FT/S) (FT/S/D) UPR LAKE MARION NOT AVBL WINYAH BAY 2045 85 190/ 12 1019.0 LAKE MURRAY 2100 81 190/ 9/ 10 1017.3F ACE BASIN NERRS NOT AVBL FORT PULASKI 2100 80 84 290/ 10/ 12 1021.4R SAPELO ISLAND 2100 75 290/ 15 1021.0R $$ ANZ835-935-AMZ111-154-330-350-352-354-370-450-454-472-052300- ...C-MAN AND BUOY OBSERVATIONS... STATION/POSITION TIME TEMP WIND PRES WAVE SWELL AIR SEA DIR/SP/G HT/PER HT/PER/DIR (UTC) (F) (DEG/KT/KT) (MB) (FT/S) (FT/S/D) BUOY 41004 2150 82 83 200/ 14/ 16 1019.5S 3/ 9 2/ 9 BUOY 41008 2150 76 80 310/ 19/ 25 1021.5 2/ 9 2/100/ 9 FOLLY BEACH CMAN 2200 82 190/ 13/ 15 1020.2R CAPERS NEARSHORE 2108 83 190/ 14/ 17 1020.0F FRIPP NEARSHORE 2100 82 180/ 12/ 14 1019.6R STATION/POSITION TIME TEMP WIND PRES WAVE SWELL AIR SEA DIR/SP/G HT/PER HT/PER/DIR (UTC) (F) (DEG/KT/KT) (MB) (FT/S) (FT/S/D) 5E ST. MARYS GA 2121 78 N/A 2/ 9 FRYING PAN BUOY 2150 82 80 200/ 14/ 16 1019.9F 3/ 5 2/130/ 8 BUOY 41025 2150 81 81 220/ 12/ 14 1019.3F 3/ 5 2/120/ 9 CAPE LOOKOUT NC 2100 82 200/ 12/ 15 1019.2F BUOY 41002 2150 81 80 190/ 10/ 12 1022.0F 4/ 8 3/150/ 8 BUOY 41010 2120 80 84 110/ 4/ 6 1021.2F ST AUGUSTINE FL 2200 69 77 350/ 7/ 8 1024.1R $$

USA.gov is the U.S. government's official web portal to all federal, state and local government web resources and services.